011121 696  0.3-  0.3+    060409 H45  0.0   0.1+    060424 379  0.0   0.4+  

030905 246  1.2+  1.9-    060409 H45  0.0   0.1+    060424 379  0.2+  0.3+  

030905 246  0.6+  1.2-    060409 H45  0.0   0.1+    060424 379  0.0   0.0   

030905 246  0.2+  0.3-    060409 H45  0.0   0.1+    060424 379  0.1+  0.1-  

030905 246  0.3+  1.2-    060409 H45  0.0   0.1-    060424 379  0.1+  0.3+  

030906 246  0.2+  0.8+    060409 H45  0.0   0.1-    060424 379  0.0   0.3+  

030906 246  0.2+  0.8+    060409 H45  0.1-  0.1-    060424 379  0.1+  0.2+  

030906 246 (0.5+  2.2+)   060409 H45  0.1-  0.1-    060424 379  0.2+  0.1+  

030906 246  0.4-  0.5-    060413 H45  0.2-  0.1-    060424 379  0.1+  0.2-  

030906 246  0.0   0.4+    060413 H45  0.2-  0.1-    060425 704  0.5+  0.3+  

030906 246  0.2+  0.1+    060413 H45  0.1-  0.1+    060425 704  0.5+  0.1+  

031115 170  0.1-  0.3-    060413 H45  0.1-  0.1+    060425 704  0.6+  0.1+  

031115 170  0.1+  0.3+    060413 H45  0.2+  0.0     060425 704  0.1+  1.9-  

031224 446 (1.5+  5.1+)   060413 H45  0.2+  0.0     060425 704 (2.2+  0.7+) 

031224 446  0.4+  1.2+    060413 H45  0.1-  0.1-    060425 704 (3.3+  0.9+) 

031224 446 (7.1+  7.3+)   060413 H45  0.1-  0.1-    060425 704  0.7+  0.1-  

051130 711  0.1+  0.3-    060413 H45  0.0   0.1+    060425 704  0.7+  0.3-  

051130 711  0.4+  1.1+    060413 H45  0.0   0.1+    060425 379  0.0   0.2+  

051130 711  0.9+  1.7+    060413 H45  0.3-  0.0     060425 379  0.3-  0.3+  

051229 711  0.7+  0.0     060413 H45  0.3-  0.0     060425 379  0.1-  0.2+  

051229 711  0.2-  0.1+    060413 850  0.0   0.0     060425 379  0.1-  0.1+  

051229 711  0.6+  0.4+    060413 850  0.0   0.0     060425 379  0.2-  0.1+  

060207 704  0.4+  1.3+    060413 850  0.0   0.0     060425 379  0.2-  0.1+  

060207 704  0.5-  0.2-    060413 850  0.0   0.0     060425 379  0.2-  0.0   

060207 704  0.2-  0.6-    060413 850  0.0   0.0     060425 379  0.2-  0.3+  

060207 704  1.2-  0.7-    060413 850  0.0   0.0     060425 379  0.1-  0.0   

060207 704  0.2-  1.1-    060413 850  0.0   0.1+    060425 300  0.2+  0.0   

060302 703  1.4+  1.2-    060413 850  0.0   0.1+    060425 300  0.0   0.1-  

060302 703  1.1+  0.9-    060413 850  0.2+  0.0     060425 300  0.3+  0.1-  

060302 703  0.1+  0.1-    060413 850  0.2+  0.0     060425 300  0.2+  0.0   

060313 198  0.3-  0.7-    060413 850  0.0   0.0     060425 300  0.1+  0.1-  

060313 198  0.1-  0.1-    060413 850  0.0   0.0     060425 300  0.2+  0.1-  

060313 198  0.0   0.1-    060413 850  0.1-  0.1-    060425 300  0.4+  0.1-  

060313 198  0.1-  0.1-    060413 850  0.1-  0.1-    060425 300  0.1-  0.4+  

060314 A13  0.5+  0.7-    060413 850  0.1-  0.1+    060425 300  0.4-  0.2+  

060314 A13  0.6+  0.5-    060413 850  0.1-  0.1+    060425 300  0.0   0.2+  

060314 A13  0.4+  0.5-    060413 850  0.1+  0.3-    060425 300  0.1-  0.3-  

060325 H45  0.5+  0.3-    060413 850  0.1+  0.3-    060425 300  0.0   0.2+  

060325 H45  0.7+  0.1-    060414 H45  0.2-  0.1-    060425 300  0.0   0.3-  

060325 H45  0.3+  0.3+    060414 H45  0.2-  0.1-    060425 300  0.0   0.5+  

060325 H45  0.4+  0.0     060414 H45  0.1-  0.1+    060427 704  0.5+  0.6-  

060325 H45  0.3+  0.2-    060414 H45  0.1-  0.1+    060427 704  0.3+  0.9-  

060326 157  0.2-  0.2+    060414 H45  0.2-  0.1-    060427 704  0.3+  0.2+  

060326 157  0.1+  0.1+    060414 H45  0.2-  0.1-    060427 704  0.1+  0.5-  

060326 157  0.1-  0.3-    060414 H45  0.2-  0.0     060427 704  0.4+  0.9-  

060326 157  0.3-  0.1-    060414 H45  0.2-  0.0                             

060326 703  0.3-  0.3+    060414 H45  0.1-  0.0                             



日本スペースガード協会            (c) Copyright JSGA 2006           中野 主一

         **** Don't distribute anyone except personal use only ****

                (C) Copyright 2006 OAA/ComputingSection

write mail from CFAD0::NAKANO on 2006-05-19 06:36:57(JST).



2001 SG276 

Epoch 2001 Oct. 18.0 TT = JDT 2452200.5                 Nakano

M 120.83803              (2000.0)            P               Q

n   0.57387537     Peri.  200.20624     -0.58984814     +0.76473313

a   1.4341382      Node    35.14625     -0.66509526     -0.27793687

e   0.2481322      Incl.   26.77718     -0.45796011     -0.58132120

P   1.72           H   17.3           G   0.15           U   *

 

NAKANO

         **** Don't distribute anyone except personal use only ****

                (C) Copyright 2001 OAA/ComputingSection

write mail from CFAD0::NAKANO on 2001-10-17 00:19:37(JST).

 

戻ります。